Flag for Germany Weather past 2 weeks in Mayen, Rhineland-Palatinate, Germany

Now
32 °F

Fog.


Feels Like: 22 °F
Forecast: 31 / 36 °F
Wind: 14 mph from Southwest

Location: Buechel

Current Time: Jan 28, 2015 at 10:30:12 AM

Latest Report: Jan 28, 2015 at 9:20 AM


Visibility: 0 mi

Pressure: 29.95 "Hg

Humidity: 100%

Dew point: 32 °F

Location of MayenLocation

Historic Weather in Mayen — Graph

°F

Mayen temperature yesterday

Maximum temperature yesterday: 36 °F (at 12:20 PM)
Minimum temperature yesterday: 32 °F (at 8:20 AM)
Average temperature yesterday: 34 °F

Past Weeks' High & Low Weather Summary

 TemperatureHumidityPressure
High48 °F (Jan 13, 2:20 PM)100% (Jan 14, 1:00 PM)30.39 "Hg (Jan 14, 1:00 PM)
Low23 °F (Jan 23, 11:20 PM)62% (Jan 13, 1:20 PM)29.53 "Hg (Jan 15, 3:20 PM)
Average32 °F91%29.94 "Hg
* Reported Jan 13 9:20 AM — Jan 28 9:20 AM, Mayen, Weather by CustomWeather, © 2014

Note: Actual official high and low records may vary slightly from our data, if they occured in-between our weather recording intervals... More about our weather records

Advertising

Mayen weather history for previous 24 hours

 ConditionsComfort  
Time TempWeatherWind HumidityBarometerVisibility
9:20 AM
Jan 28
32 °FFog.14 mph100%29.95 "Hg0 mi
8:20 AM32 °FFog.13 mph100%29.98 "Hg0 mi
7:20 AM32 °FFog.13 mph100%29.98 "Hg0 mi
6:20 AM32 °FIce fog.9 mph93%30.01 "Hg0 mi
5:20 AM32 °FIce fog.9 mph93%30.04 "Hg0 mi
4:20 AM32 °FIce fog.9 mph93%30.07 "Hg0 mi
3:20 AM32 °FChilly.7 mph100%30.09 "Hg2 mi
2:20 AM32 °FChilly.7 mph100%30.12 "Hg0 mi
1:20 AM34 °FChilly.6 mph93%30.12 "Hg4 mi
12:20 AM34 °FChilly.8 mph93%30.15 "Hg3 mi
11:20 PM
Jan 27
34 °FChilly.8 mph93%30.15 "Hg3 mi
10:20 PM34 °FChilly.6 mph93%30.15 "Hg2 mi
9:57 PM34 °FFog.7 mph93%30.15 "Hg2 mi
9:20 PM34 °FLight snow. Fog.6 mph93%30.18 "Hg2 mi
8:20 PM34 °FLight rain. Fog.6 mph93%30.18 "Hg2 mi
7:20 PM34 °FPassing clouds.6 mph93%30.15 "Hg5 mi
6:20 PM34 °FPartly cloudy.7 mph93%30.15 "Hg5 mi
5:20 PM34 °FPartly cloudy.8 mph93%30.15 "Hg6 mi
4:20 PM34 °FBroken clouds.7 mph93%30.15 "HgN/A
3:20 PM34 °FBroken clouds.6 mph93%30.15 "Hg4 mi
2:58 PM34 °FSnow. Fog.5 mph93%30.15 "Hg1 mi
2:20 PM36 °FPartly sunny.9 mph81%30.15 "HgN/A
1:20 PM36 °FPartly sunny.9 mph81%30.15 "HgN/A
12:20 PM36 °FPartly sunny.8 mph87%30.15 "HgN/A
11:48 AM34 °FFog.8 mph93%30.18 "Hg3 mi
11:20 AM34 °FPartly sunny.9 mph93%30.18 "Hg5 mi
11:01 AM34 °FSnow flurries. Fog.10 mph93%30.18 "Hg2 mi
10:20 AM34 °FLight snow. Fog.7 mph87%30.18 "Hg2 mi
Weather by CustomWeather, © 2014

See weather overviewHow to use our weather pages